sat.trackr.live / text

‹ back to catalog

STARLINK-31056

NORAD 58550 · 2023-192V

PAYLOAD ACTIVE UNKNOWN

§ Identity

Operator
Country
US
Launch date
2023-12-08
Launch site
AFWTR
Launch vehicle
Mass (kg)
RCS (m²)

Purposes: comms

External: N2YO · Heavens-Above · Gunter

§ Orbital elements

Epoch: 2026-05-25T01:55:08.671008Z

Period
94.11 min
Inclination
53.1603°
Eccentricity
0.0001069
Mean motion
15.30202552 rev/d
Perigee alt
474.5 km
Apogee alt
475.9 km
Semi-major
6,853.3 km
B*
8.8850e-5
RAAN
67.7330°
Arg perigee
88.1113°
Mean anomaly
272.0011°
Rev number
13,768

§ Raw data

STARLINK-310561 58550U 23192V   26145.07996147  .00002273  00000+0  88850-4 0  99972 58550  53.1603  67.7330 0001069  88.1113 272.0011 15.30202552137680

JSON: /api/v1/satellites/58550 · /tle

For live sub-satellite position, see the globe view (requires WebGL).

§ Visibility from observer

Set your observer location to see the next 7 days of passes ≥ 10°. The values pass through the URL so the page stays shareable.

No JS? Fill the form by hand. The geolocation button needs JavaScript.